Time,TemperatureF,DewpointF,PressureIn,WindDirection,WindDirectionDegrees,WindSpeedMPH,WindSpeedGustMPH,Humidity,HourlyPrecipIn,Conditions,Clouds,dailyrainin,SoftwareType,DateUTC
2013-03-01 00:02:00,34.0,31.0,29.98,WNW,297,0.0,2.0,89,0.00,,,0.01,,2013-03-01 05:02:00,
2013-03-01 00:11:00,34.0,31.0,29.98,WNW,297,0.0,2.0,89,0.00,,,0.01,,2013-03-01 05:11:00,
2013-03-01 00:22:00,34.0,31.0,29.98,NW,313,1.0,4.0,89,0.00,,,0.01,,2013-03-01 05:22:00,
2013-03-01 00:33:00,34.0,31.0,29.98,NNW,336,1.0,4.0,89,0.00,,,0.01,,2013-03-01 05:33:00,
2013-03-01 00:42:00,34.0,31.0,29.98,NNW,336,1.0,4.0,89,0.00,,,0.01,,2013-03-01 05:42:00,
2013-03-01 00:53:00,34.0,31.0,29.98,NNW,335,1.0,5.0,89,0.00,,,0.01,,2013-03-01 05:53:00,
2013-03-01 01:02:00,34.0,31.0,29.98,North,9,3.0,7.0,89,0.00,,,0.01,,2013-03-01 06:02:00,
2013-03-01 01:12:00,34.0,31.0,29.98,North,9,3.0,7.0,89,0.00,,,0.01,,2013-03-01 06:12:00,
2013-03-01 01:22:00,34.0,31.0,29.99,NE,37,4.0,7.0,89,0.00,,,0.01,,2013-03-01 06:22:00,
2013-03-01 01:32:00,34.0,31.0,29.99,NE,41,3.0,6.0,90,0.00,,,0.01,,2013-03-01 06:32:00,
2013-03-01 01:42:00,34.0,31.0,29.99,NE,41,3.0,6.0,90,0.00,,,0.01,,2013-03-01 06:42:00,
2013-03-01 01:53:00,34.0,31.0,29.99,NNE,26,3.0,7.0,89,0.00,,,0.01,,2013-03-01 06:53:00,
2013-03-01 02:02:00,33.0,30.0,30.00,NNE,26,5.0,9.0,89,0.00,,,0.01,,2013-03-01 07:02:00,
2013-03-01 02:12:00,33.0,30.0,30.00,NNE,26,5.0,9.0,89,0.00,,,0.01,,2013-03-01 07:12:00,
2013-03-01 02:22:00,33.0,29.0,30.00,NNE,15,6.0,11.0,86,0.00,,,0.01,,2013-03-01 07:22:00,
2013-03-01 02:32:00,33.0,30.0,30.00,NNW,347,4.0,12.0,87,0.00,,,0.01,,2013-03-01 07:32:00,
2013-03-01 02:42:00,33.0,30.0,30.00,NNW,347,4.0,12.0,87,0.00,,,0.01,,2013-03-01 07:42:00,
2013-03-01 02:52:00,32.0,29.0,30.00,North,11,4.0,11.0,88,0.00,,,0.01,,2013-03-01 07:52:00,
2013-03-01 03:02:00,32.0,29.0,30.00,NNE,31,6.0,10.0,87,0.00,,,0.01,,2013-03-01 08:02:00,
2013-03-01 03:12:00,32.0,29.0,30.00,NNE,31,6.0,10.0,87,0.00,,,0.01,,2013-03-01 08:12:00,
2013-03-01 03:22:00,32.0,29.0,30.00,North,11,5.0,10.0,87,0.00,,,0.01,,2013-03-01 08:22:00,
2013-03-01 03:32:00,32.0,29.0,30.00,NNE,16,7.0,13.0,87,0.00,,,0.01,,2013-03-01 08:32:00,
2013-03-01 03:43:00,32.0,29.0,30.00,NNE,16,7.0,13.0,87,0.00,,,0.01,,2013-03-01 08:43:00,
2013-03-01 03:53:00,31.0,27.0,29.99,NNE,26,7.0,12.0,86,0.00,,,0.01,,2013-03-01 08:53:00,
2013-03-01 04:02:00,31.0,27.0,30.00,North,5,7.0,13.0,86,0.00,,,0.01,,2013-03-01 09:02:00,
2013-03-01 04:12:00,31.0,27.0,30.00,North,5,7.0,13.0,86,0.00,,,0.01,,2013-03-01 09:12:00,
2013-03-01 04:22:00,31.0,27.0,30.00,North,355,5.0,10.0,86,0.00,,,0.01,,2013-03-01 09:22:00,
2013-03-01 04:32:00,31.0,27.0,30.00,North,5,7.0,11.0,86,0.00,,,0.01,,2013-03-01 09:32:00,
2013-03-01 04:42:00,31.0,27.0,30.00,North,5,7.0,11.0,86,0.00,,,0.01,,2013-03-01 09:42:00,
2013-03-01 04:53:00,31.0,27.0,30.01,North,350,5.0,11.0,85,0.00,,,0.01,,2013-03-01 09:53:00,
2013-03-01 05:02:00,31.0,27.0,30.01,North,11,5.0,11.0,86,0.00,,,0.01,,2013-03-01 10:02:00,
2013-03-01 05:12:00,31.0,27.0,30.01,North,11,5.0,11.0,86,0.00,,,0.01,,2013-03-01 10:12:00,
2013-03-01 05:22:00,31.0,27.0,30.01,North,5,4.0,9.0,86,0.00,,,0.01,,2013-03-01 10:22:00,
2013-03-01 05:32:00,30.0,26.0,30.02,NNW,343,4.0,13.0,85,0.00,,,0.01,,2013-03-01 10:32:00,
2013-03-01 05:42:00,30.0,26.0,30.02,NNW,343,4.0,13.0,85,0.00,,,0.01,,2013-03-01 10:42:00,
2013-03-01 05:53:00,30.0,26.0,30.02,NNE,24,4.0,11.0,85,0.00,,,0.01,,2013-03-01 10:53:00,
2013-03-01 06:02:00,30.0,26.0,30.03,North,360,5.0,11.0,85,0.00,,,0.01,,2013-03-01 11:02:00,
2013-03-01 06:11:00,30.0,26.0,30.03,North,360,5.0,11.0,85,0.00,,,0.01,,2013-03-01 11:11:00,
2013-03-01 06:22:00,30.0,26.0,30.03,NNW,336,6.0,11.0,85,0.00,,,0.01,,2013-03-01 11:22:00,
2013-03-01 06:32:00,30.0,26.0,30.03,North,360,5.0,11.0,85,0.00,,,0.01,,2013-03-01 11:32:00,
2013-03-01 06:42:00,30.0,26.0,30.03,North,360,5.0,11.0,85,0.00,,,0.01,,2013-03-01 11:42:00,
2013-03-01 06:53:00,30.0,26.0,30.03,NNE,18,6.0,12.0,85,0.00,,,0.01,,2013-03-01 11:53:00,
2013-03-01 07:02:00,30.0,26.0,30.04,NNE,17,7.0,11.0,85,0.00,,,0.01,,2013-03-01 12:02:00,
2013-03-01 07:11:00,30.0,26.0,30.04,NNE,17,7.0,11.0,85,0.00,,,0.01,,2013-03-01 12:11:00,
2013-03-01 07:22:00,30.0,26.0,30.04,North,9,4.0,10.0,85,0.00,,,0.00,,2013-03-01 12:22:00,
2013-03-01 07:32:00,30.0,26.0,30.05,NNW,347,4.0,7.0,85,0.00,,,0.00,,2013-03-01 12:32:00,
2013-03-01 07:42:00,30.0,26.0,30.05,NNW,347,4.0,7.0,85,0.00,,,0.00,,2013-03-01 12:42:00,
2013-03-01 07:52:00,30.0,26.0,30.05,North,355,4.0,8.0,85,0.00,,,0.00,,2013-03-01 12:52:00,
2013-03-01 08:01:00,30.0,26.0,30.05,North,355,4.0,8.0,85,0.00,,,0.00,,2013-03-01 13:01:00,
2013-03-01 08:11:00,30.0,26.0,30.05,North,355,4.0,8.0,85,0.00,,,0.00,,2013-03-01 13:11:00,
2013-03-01 08:22:00,30.0,26.0,30.06,North,360,4.0,10.0,85,0.00,,,0.00,,2013-03-01 13:22:00,
2013-03-01 08:32:00,30.0,26.0,30.07,NE,43,5.0,9.0,85,0.00,,,0.00,,2013-03-01 13:32:00,
2013-03-01 08:42:00,30.0,26.0,30.07,NE,43,5.0,9.0,85,0.00,,,0.00,,2013-03-01 13:42:00,
2013-03-01 08:52:00,30.0,26.0,30.07,NNE,31,4.0,8.0,85,0.00,,,0.00,,2013-03-01 13:52:00,
2013-03-01 09:01:00,30.0,26.0,30.07,North,5,6.0,10.0,84,0.00,,,0.00,,2013-03-01 14:01:00,
2013-03-01 09:11:00,30.0,26.0,30.07,North,5,6.0,10.0,84,0.00,,,0.00,,2013-03-01 14:11:00,
2013-03-01 09:22:00,30.0,26.0,30.08,North,351,3.0,9.0,84,0.00,,,0.00,,2013-03-01 14:22:00,
2013-03-01 09:32:00,30.0,26.0,30.08,NNW,348,3.0,8.0,84,0.00,,,0.00,,2013-03-01 14:32:00,
2013-03-01 09:42:00,30.0,26.0,30.08,NNW,348,3.0,8.0,84,0.00,,,0.00,,2013-03-01 14:42:00,
2013-03-01 09:52:00,30.0,25.0,30.08,NNE,27,8.0,13.0,81,0.00,,,0.00,,2013-03-01 14:52:00,
2013-03-01 10:02:00,30.0,25.0,30.08,North,360,7.0,11.0,81,0.00,,,0.00,,2013-03-01 15:02:00,
2013-03-01 10:11:00,30.0,25.0,30.08,NNE,22,6.0,12.0,81,0.00,,,0.00,,2013-03-01 15:11:00,
2013-03-01 10:21:00,30.0,25.0,30.08,NNE,22,6.0,12.0,81,0.00,,,0.00,,2013-03-01 15:21:00,
2013-03-01 10:32:00,31.0,26.0,30.08,North,355,4.0,11.0,81,0.00,,,0.00,,2013-03-01 15:32:00,
2013-03-01 10:42:00,31.0,26.0,30.08,North,355,4.0,11.0,81,0.00,,,0.00,,2013-03-01 15:42:00,
2013-03-01 10:52:00,31.0,25.0,30.08,NNE,21,6.0,13.0,79,0.00,,,0.00,,2013-03-01 15:52:00,
2013-03-01 11:01:00,31.0,25.0,30.09,North,355,7.0,12.0,77,0.00,,,0.00,,2013-03-01 16:01:00,
2013-03-01 11:11:00,31.0,25.0,30.09,North,355,7.0,12.0,77,0.00,,,0.00,,2013-03-01 16:11:00,
2013-03-01 11:21:00,31.0,24.0,30.09,NNE,16,8.0,13.0,76,0.00,,,0.00,,2013-03-01 16:21:00,
2013-03-01 11:32:00,31.0,24.0,30.09,North,351,8.0,14.0,75,0.00,,,0.00,,2013-03-01 16:32:00,
2013-03-01 11:42:00,31.0,24.0,30.09,North,351,8.0,14.0,75,0.00,,,0.00,,2013-03-01 16:42:00,
2013-03-01 11:52:00,30.0,24.0,30.09,North,11,8.0,13.0,77,0.00,,,0.00,,2013-03-01 16:52:00,
2013-03-01 12:01:00,30.0,24.0,30.10,NNE,28,7.0,16.0,77,0.00,,,0.00,,2013-03-01 17:01:00,
2013-03-01 12:11:00,30.0,24.0,30.10,NNE,28,7.0,16.0,77,0.00,,,0.00,,2013-03-01 17:11:00,
2013-03-01 12:21:00,30.0,23.0,30.10,North,355,8.0,15.0,76,0.00,,,0.00,,2013-03-01 17:21:00,
2013-03-01 12:32:00,31.0,24.0,30.10,North,10,6.0,14.0,75,0.00,,,0.00,,2013-03-01 17:32:00,
2013-03-01 12:42:00,31.0,24.0,30.10,North,10,6.0,14.0,75,0.00,,,0.00,,2013-03-01 17:42:00,
2013-03-01 12:52:00,31.0,24.0,30.10,NNE,15,7.0,13.0,76,0.00,,,0.00,,2013-03-01 17:52:00,
2013-03-01 13:01:00,31.0,24.0,30.09,NNE,28,7.0,13.0,75,0.00,,,0.00,,2013-03-01 18:01:00,
2013-03-01 13:12:00,31.0,24.0,30.09,NNE,28,7.0,13.0,75,0.00,,,0.00,,2013-03-01 18:12:00,
2013-03-01 13:22:00,30.0,23.0,30.09,NNW,348,8.0,13.0,74,0.00,,,0.00,,2013-03-01 18:22:00,
2013-03-01 13:32:00,30.0,22.0,30.08,North,360,6.0,13.0,73,0.00,,,0.00,,2013-03-01 18:32:00,
2013-03-01 13:42:00,30.0,22.0,30.08,North,360,6.0,13.0,73,0.00,,,0.00,,2013-03-01 18:42:00,
2013-03-01 13:52:00,30.0,22.0,30.08,North,360,6.0,13.0,73,0.00,,,0.00,,2013-03-01 18:52:00,
2013-03-01 14:01:00,30.0,23.0,30.08,NNW,346,6.0,11.0,75,0.00,,,0.00,,2013-03-01 19:01:00,
2013-03-01 14:11:00,30.0,23.0,30.08,NNW,346,6.0,11.0,75,0.00,,,0.00,,2013-03-01 19:11:00,
2013-03-01 14:21:00,30.0,24.0,30.08,North,360,6.0,14.0,77,0.00,,,0.00,,2013-03-01 19:21:00,
2013-03-01 14:32:00,30.0,23.0,30.08,North,5,5.0,11.0,76,0.00,,,0.00,,2013-03-01 19:32:00,
2013-03-01 14:42:00,30.0,23.0,30.08,North,5,5.0,11.0,76,0.00,,,0.00,,2013-03-01 19:42:00,
2013-03-01 14:52:00,30.0,23.0,30.08,North,351,7.0,14.0,74,0.00,,,0.00,,2013-03-01 19:52:00,
2013-03-01 15:01:00,30.0,23.0,30.08,NNE,13,5.0,10.0,75,0.00,,,0.00,,2013-03-01 20:01:00,
2013-03-01 15:11:00,30.0,23.0,30.08,NNE,13,5.0,10.0,75,0.00,,,0.00,,2013-03-01 20:11:00,
2013-03-01 15:21:00,30.0,23.0,30.08,North,10,7.0,14.0,75,0.00,,,0.00,,2013-03-01 20:21:00,
2013-03-01 15:32:00,30.0,23.0,30.08,North,5,6.0,11.0,75,0.00,,,0.00,,2013-03-01 20:32:00,
2013-03-01 15:42:00,30.0,23.0,30.08,North,5,6.0,11.0,75,0.00,,,0.00,,2013-03-01 20:42:00,
2013-03-01 15:52:00,30.0,23.0,30.08,North,355,7.0,12.0,74,0.00,,,0.00,,2013-03-01 20:52:00,
2013-03-01 16:01:00,29.0,22.0,30.09,North,5,7.0,11.0,75,0.00,,,0.00,,2013-03-01 21:01:00,
2013-03-01 16:11:00,29.0,22.0,30.09,North,355,6.0,11.0,75,0.00,,,0.00,,2013-03-01 21:11:00,
2013-03-01 16:21:00,29.0,22.0,30.09,North,355,6.0,11.0,75,0.00,,,0.00,,2013-03-01 21:21:00,
2013-03-01 16:32:00,29.0,23.0,30.09,NNE,19,6.0,12.0,77,0.00,,,0.00,,2013-03-01 21:32:00,
2013-03-01 16:42:00,29.0,23.0,30.09,NNE,19,6.0,12.0,77,0.00,,,0.00,,2013-03-01 21:42:00,
2013-03-01 16:52:00,29.0,23.0,30.09,North,351,7.0,11.0,77,0.00,,,0.00,,2013-03-01 21:52:00,
2013-03-01 17:01:00,28.0,21.0,30.09,North,351,8.0,13.0,76,0.00,,,0.00,,2013-03-01 22:01:00,
2013-03-01 17:11:00,28.0,21.0,30.09,North,351,8.0,13.0,76,0.00,,,0.00,,2013-03-01 22:11:00,
2013-03-01 17:22:00,28.0,21.0,30.10,NNW,344,6.0,12.0,76,0.00,,,0.00,,2013-03-01 22:22:00,
2013-03-01 17:32:00,28.0,21.0,30.10,NE,34,4.0,11.0,76,0.00,,,0.00,,2013-03-01 22:32:00,
2013-03-01 17:42:00,28.0,21.0,30.10,NE,34,4.0,11.0,76,0.00,,,0.00,,2013-03-01 22:42:00,
2013-03-01 17:52:00,28.0,22.0,30.11,NNW,346,7.0,12.0,78,0.00,,,0.00,,2013-03-01 22:52:00,
2013-03-01 18:01:00,28.0,22.0,30.11,North,360,8.0,14.0,79,0.00,,,0.00,,2013-03-01 23:01:00,
2013-03-01 18:11:00,28.0,22.0,30.11,North,360,8.0,14.0,79,0.00,,,0.00,,2013-03-01 23:11:00,
2013-03-01 18:21:00,27.0,21.0,30.11,NE,40,5.0,13.0,78,0.00,,,0.00,,2013-03-01 23:21:00,
2013-03-01 18:32:00,27.0,21.0,30.11,North,5,4.0,9.0,78,0.00,,,0.00,,2013-03-01 23:32:00,
2013-03-01 18:41:00,27.0,21.0,30.11,North,5,4.0,9.0,78,0.00,,,0.00,,2013-03-01 23:41:00,
2013-03-01 18:52:00,27.0,20.0,30.12,North,5,5.0,11.0,76,0.00,,,0.00,,2013-03-01 23:52:00,
2013-03-01 19:02:00,27.0,21.0,30.12,NNE,17,7.0,11.0,78,0.00,,,0.00,,2013-03-02 00:02:00,
2013-03-01 19:12:00,27.0,21.0,30.12,NNE,17,7.0,11.0,78,0.00,,,0.00,,2013-03-02 00:12:00,
2013-03-01 19:22:00,27.0,21.0,30.13,NNE,18,5.0,9.0,78,0.00,,,0.00,,2013-03-02 00:22:00,
2013-03-01 19:32:00,27.0,21.0,30.14,North,5,5.0,12.0,78,0.00,,,0.00,,2013-03-02 00:32:00,
2013-03-01 19:42:00,27.0,21.0,30.14,North,5,5.0,12.0,78,0.00,,,0.00,,2013-03-02 00:42:00,
2013-03-01 19:52:00,27.0,21.0,30.14,North,351,3.0,8.0,79,0.00,,,0.00,,2013-03-02 00:52:00,
2013-03-01 20:01:00,27.0,21.0,30.14,NNW,342,4.0,10.0,79,0.00,,,0.00,,2013-03-02 01:01:00,
2013-03-01 20:11:00,27.0,21.0,30.14,NNW,342,4.0,10.0,79,0.00,,,0.00,,2013-03-02 01:11:00,
2013-03-01 20:21:00,27.0,21.0,30.14,NNE,19,4.0,10.0,79,0.00,,,0.00,,2013-03-02 01:21:00,
2013-03-01 20:32:00,27.0,22.0,30.15,NNE,13,4.0,8.0,80,0.00,,,0.00,,2013-03-02 01:32:00,
2013-03-01 20:42:00,27.0,22.0,30.15,NNE,13,4.0,8.0,80,0.00,,,0.00,,2013-03-02 01:42:00,
2013-03-01 20:52:00,27.0,22.0,30.15,North,5,5.0,9.0,81,0.00,,,0.00,,2013-03-02 01:52:00,
2013-03-01 21:01:00,27.0,22.0,30.15,NNE,13,4.0,8.0,80,0.00,,,0.00,,2013-03-02 02:01:00,
2013-03-01 21:11:00,27.0,22.0,30.15,NNE,13,4.0,8.0,80,0.00,,,0.00,,2013-03-02 02:11:00,
2013-03-01 21:22:00,27.0,22.0,30.15,North,349,6.0,9.0,80,0.00,,,0.00,,2013-03-02 02:22:00,
2013-03-01 21:32:00,27.0,22.0,30.15,North,360,4.0,13.0,80,0.00,,,0.00,,2013-03-02 02:32:00,
2013-03-01 21:42:00,27.0,22.0,30.15,North,360,4.0,13.0,80,0.00,,,0.00,,2013-03-02 02:42:00,
2013-03-01 21:52:00,27.0,22.0,30.16,NNW,348,5.0,8.0,81,0.00,,,0.00,,2013-03-02 02:52:00,
2013-03-01 22:02:00,27.0,22.0,30.16,NNE,24,6.0,10.0,81,0.00,,,0.00,,2013-03-02 03:02:00,
2013-03-01 22:11:00,27.0,22.0,30.16,NNE,24,6.0,10.0,81,0.00,,,0.00,,2013-03-02 03:11:00,
2013-03-01 22:22:00,27.0,21.0,30.16,NE,34,6.0,15.0,78,0.00,,,0.00,,2013-03-02 03:22:00,
2013-03-01 22:32:00,27.0,21.0,30.16,NNE,19,4.0,8.0,79,0.00,,,0.00,,2013-03-02 03:32:00,
2013-03-01 22:42:00,27.0,21.0,30.16,NNE,19,4.0,8.0,79,0.00,,,0.00,,2013-03-02 03:42:00,
2013-03-01 22:52:00,27.0,21.0,30.16,North,5,4.0,11.0,79,0.00,,,0.00,,2013-03-02 03:52:00,
2013-03-01 23:01:00,27.0,21.0,30.15,NNE,17,4.0,9.0,79,0.00,,,0.00,,2013-03-02 04:01:00,
2013-03-01 23:11:00,27.0,21.0,30.15,NNE,17,4.0,9.0,79,0.00,,,0.00,,2013-03-02 04:11:00,
2013-03-01 23:22:00,27.0,22.0,30.15,North,9,4.0,8.0,80,0.00,,,0.00,,2013-03-02 04:22:00,
2013-03-01 23:32:00,27.0,22.0,30.15,NNW,338,4.0,7.0,80,0.00,,,0.00,,2013-03-02 04:32:00,
2013-03-01 23:42:00,27.0,22.0,30.15,NNW,338,4.0,7.0,80,0.00,,,0.00,,2013-03-02 04:42:00,
2013-03-01 23:52:00,27.0,22.0,30.14,NNW,339,5.0,9.0,80,0.00,,,0.00,,2013-03-02 04:52:00,